Regional Weather Roundup
Issued by NWS

Home | Current Version | Previous Version | Graphics & Text | Print | Product List | Glossary On
Versions: 1 2 3 4 5 6 7 8 9 10 11 12 13 14 15 16 17 18 19 20 21 22 23 24 25 26 27 28 29 30 31 32 33 34 35 36 37 38 39 40 41 42 43 44 45 46 47 48 49 50
000
ASUS43 KMPX 270910
RWRMN
WEATHER ROUNDUP FOR MINNESOTA
NATIONAL WEATHER SERVICE TWIN CITIES/CHANHASSEN MN
400 AM CDT WED MAY 27 2015


NOTE: "FAIR" INDICATES FEW OR NO CLOUDS BELOW 12,000 FEET WITH NO
SIGNIFICANT WEATHER AND/OR OBSTRUCTIONS TO VISIBILITY. N/A MEANS
CURRENT SKY AND/OR WEATHER CONDITIONS ARE NOT AVAILABLE.

MNZ060>063-068>070-271000-
   Twin Cities Metro

CITY           SKY/WX    TMP DP  RH WIND       PRES   REMARKS
TWIN CITIES    CLOUDY    56  55  97 SW6       29.85R
ST PAUL        CLOUDY    55  55 100 CALM      29.85R FOG
CRYSTAL        CLOUDY    54  53  97 CALM      29.84R FOG
BLAINE           N/A     54  54 100 W3        29.84S FOG
LAKEVILLE      CLOUDY    55  54  94 CALM      29.85S
EDEN PRAIRIE   CLOUDY    55  54  96 SW3       29.85R FOG
SOUTH ST PAUL  CLOUDY    56  55  95 SW3       29.85R FOG
LAKE ELMO      FAIR      54  54 100 CALM      29.85S FOG
$$
MNZ001>005-007-008-013>017-022>024-027-028-271000-
   Northwest Minnesota

CITY           SKY/WX    TMP DP  RH WIND       PRES   REMARKS
BEMIDJI        CLEAR     51  48  92 W3        29.79R
HALLOCK        PTCLDY    55  48  76 N8        29.82R
ROSEAU         CLEAR     55  48  76 NW6       29.80R
WARROAD        CLEAR     55  48  76 NW9       29.79R
THIEF RVR FALL MOCLDY    57  52  82 NW6       29.80R
CROOKSTON      PTCLDY    54  46  76 N9        29.81R
FOSSTON        PTCLDY    52  50  93 S5        29.81R
DETROIT LAKES  CLEAR     55  52  88 CALM      29.83R
MOORHEAD       CLEAR     55  52  88 CALM      29.82R
PARK RAPIDS    CLEAR     55  50  83 CALM      29.80R
MAHNOMEN       FAIR      54  51  90 S6        29.80S
$$
MNZ006-009>011-018-025>026-271000-
   North Central Minnesota

CITY           SKY/WX    TMP DP  RH WIND       PRES   REMARKS
BAUDETTE       CLEAR     56  50  80 NW7       29.76R
FLAG ISLAND    CLEAR     59  48  67 NW14      29.77R
INTL FALLS     CLEAR     48  47  96 CALM      29.75R
WASKISH        CLEAR     57  55  94 CALM      29.77R
BIG FORK       FOG       52  50  93 CALM      29.78S VSB 1/4
LONGVILLE      PTCLDY    48  48 100 CALM      29.80R FOG
GRAND RAPIDS   MOCLDY    52  46  82 S3        29.79S
CRANE LAKE     MOCLDY    46  46 100 CALM      29.77R
ORR            MOCLDY    54  48  82 CALM      29.75R
COOK           MOCLDY    55  52  88 SW3       29.77S
WALKER         FAIR      50  50  99 CALM      29.79S
$$
MNZ012-019>021-037-271000-
   Northeast Minnesota

CITY           SKY/WX    TMP DP  RH WIND       PRES   REMARKS
DULUTH         MOCLDY    52  48  86 W8        29.79S
HIBBING        MOCLDY    47  45  93 CALM      29.78S FOG
EVELETH        MOCLDY    52  50  93 W3        29.79S
DULUTH HARBOR  MOCLDY    54  52  94 SW6       29.79S
TWO HARBORS    MOCLDY    55  52  88 W6        29.75F
GRAND MARAIS     N/A     48  45  89 SW6       29.71F
G MARAIS ARPRT CLOUDY    55  46  71 W6        29.74S
$$
MNZ029>031-032-039>041-046>048-054>057-064-271000-
   West Central Minnesota

CITY           SKY/WX    TMP DP  RH WIND       PRES   REMARKS
FERGUS FALLS   CLEAR     55  54  94 CALM      29.83R
WHEATON        CLEAR     57  48  72 W5        29.86R
MORRIS         CLEAR     55  52  88 W8        29.83R
ALEXANDRIA     CLEAR     54  53  97 SW6       29.84S
ELBOW LAKE     FAIR      53  51  91 SW7       29.83R
WADENA         CLEAR     54  52  94 W3        29.81S
GLENWOOD       PTCLDY    54  52  94 SW7       29.84S
APPLETON       CLEAR     54  50  87 W6        29.85R
BENSON         PTCLDY    54  52  94 CALM      29.85R
ORTONVILLE     CLEAR     59  48  67 W9        29.84S
MADISON          N/A     54  48  82 W8        29.86R
WILLMAR        FAIR      55  54  94 CALM      29.86S
$$
MNZ033>034-036-042>043-049>051-058-059-271000-
   Central Minnesota

CITY           SKY/WX    TMP DP  RH WIND       PRES   REMARKS
ST CLOUD       CLOUDY    52  52 100 SE3       29.83R
SAUK CENTRE    FAIR      55  53  94 SW5       29.84R
PAYNESVILLE    MOCLDY    49  49 100 CALM      29.85R
AITKIN         MOCLDY    55  48  76 SW3       29.79F
PINE RIVER     PTCLDY    50  50 100 CALM      29.84S
BRAINERD       MOCLDY    51  51 100 SW5       29.81S
STAPLES        PTCLDY    52  50  93 CALM      29.82R
LONG PRAIRIE   FAIR      54  52  94 S5        29.83S
LITTLE FALLS     N/A     52  50  93 CALM      29.82S FOG
LITCHFIELD     MOCLDY    57  57 100 CALM      29.86R
BUFFALO        CLOUDY    55  53  94 CALM      29.86R
MAPLE LAKE     CLOUDY    55  55  97 CALM      29.85S FOG
$$
MNZ037-044-045-052-053-271000-
   East Central Minnesota

CITY           SKY/WX    TMP DP  RH WIND       PRES   REMARKS
PRINCETON      CLOUDY    54  52  94 CALM      29.84R
MORA           CLOUDY    50  50 100 CALM      29.85S
CAMBRIDGE      CLOUDY    55  46  71 CALM      29.83R
RUSH CITY      CLOUDY    50  49  97 CALM      29.84R FOG
MOOSE LAKE     CLOUDY    48  48 100 CALM      29.80S
HINCKLEY       CLOUDY    52  52 100 CALM      29.82S
CLOQUET        MOCLDY    54  48  82 W6        29.80S
MCGREGOR       CLOUDY    54  52  94 SW3       29.81S
$$
MNZ071>073-080-081-089-090-097-098-271000-
   Southwest Minnesota

CITY           SKY/WX    TMP DP  RH WIND       PRES   REMARKS
MONTEVIDEO     PTCLDY    55  54  94 W5        29.86R
GRANITE FALLS  PTCLDY    54  52  92 S5        29.87S
CANBY          CLEAR     55  49  78 W5        29.88R
MARSHALL       CLEAR     57  48  72 W13       29.87R
REDWOOD FALLS  MOCLDY    55  53  93 S6        29.86R
OLIVIA         PTCLDY    52  50  93 CALM      29.85S
PIPESTONE      CLEAR     52  48  87 SW3       29.90S
WINDOM         MOCLDY    55  54  94 CALM      29.90S FOG
WORTHINGTON    PTCLDY    55  50  82 SW7       29.91S
JACKSON        MOCLDY    55  54  94 SW3       29.92R
TRACY          PTCLDY    56  53  87 SW8       29.88S
SLAYTON        PTCLDY    56  52  86 W10       29.91R
$$
MNZ065>067-074>077-082>085-091>093-271000-
   South Central Minnesota

CITY           SKY/WX    TMP DP  RH WIND       PRES   REMARKS
MANKATO        CLOUDY    55  54  94 SW5       29.87S
NEW ULM        CLOUDY    54  54 100 W5        29.88R
ST JAMES       CLOUDY    57  55  94 SW8       29.90R
FAIRMONT       CLOUDY    55  50  82 W7        29.88S
GLENCOE        CLOUDY    57  56  99 CALM      29.85S
FARIBAULT      CLOUDY    55  55 100 CALM      29.87R FOG
OWATONNA       CLOUDY    57  55  94 SW6       29.87S FOG
WASECA         CLOUDY    55  55 100 SW5       29.89R FOG
ALBERT LEA     CLOUDY    57  57 100 W5        29.88R FOG
$$
MNZ078>079-086>088-094>096-271000-
   Southeast Minnesota

CITY           SKY/WX    TMP DP  RH WIND       PRES   REMARKS
ROCHESTER      CLOUDY    56  55  97 W8        29.87R
RED WING       CLOUDY    57  55  94 NW3       29.83S FOG
STANTON        CLOUDY    57  55  91 SW6       29.85R
DODGE CENTER   CLOUDY    55  55 100 W7        29.87R FOG
WINONA         DRIZZLE   59  55  88 NW5       29.83
AUSTIN         CLOUDY    55  55 100 W6        29.87R FOG
PRESTON        CLOUDY    56  54  94 NW8       29.87R
$$
ABBREVIATIONS USED IN REMARKS
   TC - TEMPERATURES IN CELSIUS
  WCI - WIND CHILL INDEX
   HX - HEAT INDEX
  VSB - VISIBILITY
$$



USA.gov is the U.S. government's official web portal to all federal, state and local government web resources and services.